Location: Unspecified
(0.0000°N, 0.0000°E)
Time: 23:02:10
(UTC+00:00)

SR - Visible Passes

Search period start: 30 March 2015 00:00
Search period end: 09 April 2015 00:00
Orbit: 585 x 877 km, 66.7° (Epoch: 29 March)

Date Brightness Start Highest point End Pass type
(mag) Time Alt. Az. Time Alt. Az. Time Alt. Az.
05 Apr ? 20:18:54 10° SSW 20:20:04 16° SSW 20:20:04 16° SSW visible
06 Apr ? 19:30:18 10° S 19:34:31 42° SSE 19:34:31 42° SSE visible
07 Apr ? 18:42:52 10° SSE 18:46:41 20° ESE 18:49:38 13° ENE visible
07 Apr ? 20:24:12 10° SW 20:28:47 27° WNW 20:29:20 26° WNW visible
08 Apr ? 19:34:35 10° SSW 19:40:03 68° WNW 19:45:04 10° NNE visible
